GFSFLT2_850_dewp_129.txt.gz
Dewpoint
14 15 15 14 13 11 10 10 9 8 8 7 7 7 10 12 12 12 11 10 10 10 10 10 11 11 9 8 9 9 11 10
-2 11 12 15 14 12 11 11 10 9 9 8 8 8 10 12 12 12 11 10 10 10 10 10 11 10 8 7 8 9 10 10
-5 1 9 12 14 12 11 11 11 10 10 9 9 9 10 12 12 12 11 10 10 10 10 10 10 9 7 7 8 8 10 9
-14 1 5 11 12 14 12 12 11 10 10 9 8 9 10 11 11 11 11 10 10 10 10 10 10 8 6 7 7 9 9 9
-15 -14 0 9 12 13 14 12 12 11 11 10 9 9 10 11 11 11 11 11 10 10 10 10 9 7 8 7 7 9 12 11
-14 -15 -14 3 11 13 13 15 14 13 11 10 10 9 10 10 10 10 10 10 10 10 10 10 8 8 11 11 10 11 12 13
-12 -13 -13 -12 -2 10 12 12 14 14 13 11 10 10 10 10 11 11 12 11 10 10 10 10 8 11 12 11 11 12 11 11
-7 -8 -10 -12 -12 -5 9 11 13 14 13 11 10 9 9 11 13 12 12 12 12 10 10 10 8 11 13 12 11 12 11 11
-4 -6 -6 -6 -10 -12 0 7 12 13 13 13 12 10 11 11 13 13 12 12 12 12 12 11 11 12 12 11 11 11 11 11
-4 -4 -6 -5 -7 -6 -12 -9 9 11 12 13 13 12 11 12 13 13 13 12 13 12 13 12 12 11 11 11 11 11 11 10
-8 -5 -4 -6 -5 -4 -3 -11 3 10 12 13 13 14 13 11 11 12 13 13 13 12 13 12 11 11 11 10 10 10 10 10
-6 -6 -3 -2 -4 -6 -5 -5 -8 8 11 12 13 13 13 12 12 12 13 13 13 12 12 12 11 11 11 11 10 11 10 10
-6 -4 -5 -1 -1 -1 -6 -7 2 8 7 11 14 13 13 11 13 13 12 12 12 11 11 11 12 12 12 11 11 11 10 9
-5 -4 -4 -4 -1 2 3 2 -2 8 10 9 11 13 12 11 12 13 12 12 13 12 11 11 12 12 12 11 11 11 10 11
-6 -5 -4 -4 -3 -1 2 3 3 2 7 10 11 13 13 10 12 13 13 13 13 12 12 11 12 13 13 12 12 11 11 10
-5 -5 -5 -4 -3 -2 -1 1 1 -0 2 6 12 12 13 11 11 11 13 14 13 12 12 12 12 12 13 12 11 9 9 10
-5 -5 -4 -4 -3 -2 0 1 1 0 -3 2 8 12 13 11 11 11 8 14 14 14 13 12 12 12 12 12 12 10 11 12
-4 -4 -3 -3 -2 -2 1 2 1 -1 -2 -3 1 6 12 13 12 12 11 11 10 9 12 12 13 12 12 12 12 12 10 10
-4 -4 -3 -2 -1 0 1 3 4 2 -5 -6 -1 1 7 13 13 13 12 11 12 14 13 13 12 13 12 12 12 12 12 11
-4 -4 -3 -2 -1 0 2 3 3 1 -1 4 8 6 6 12 14 13 12 10 10 13 13 13 13 12 12 12 12 12 11 10

GFSFLT2_850_dewp_132.txt.gz
Dewpoint
-5 -0 3 11 14 14 11 10 9 9 8 8 9 9 10 12 12 12 11 10 10 10 10 10 11 11 10 9 10 9 10 10
-15 6 6 7 11 13 13 11 10 10 9 9 9 9 10 11 12 12 12 10 10 10 10 10 11 11 9 8 8 10 10 10
-14 -9 9 13 11 12 13 12 11 10 10 9 9 9 10 11 12 12 12 10 10 9 10 10 10 10 8 7 7 10 10 10
-11 -12 -11 -3 12 13 13 13 12 11 10 10 9 9 10 10 11 12 12 11 10 10 10 10 10 10 8 7 8 9 9 9
-11 -11 -12 -11 -10 9 14 13 14 12 11 10 9 10 10 11 12 12 12 11 10 10 10 10 10 9 7 7 8 8 8 10
-13 -12 -12 -12 -12 -11 1 13 13 14 13 11 10 9 10 10 11 11 11 11 10 9 9 10 10 9 8 8 7 9 10 11
-12 -12 -11 -12 -12 -12 -10 -8 12 13 13 15 13 10 9 10 11 11 10 11 10 9 9 10 10 8 11 11 11 11 11 11
-6 -7 -10 -9 -9 -10 -10 -8 -4 11 12 14 14 12 10 10 10 10 10 10 10 10 9 10 10 8 10 11 11 11 11 11
-9 -8 -6 -6 -7 -7 -8 -10 -10 -1 8 12 14 12 11 10 11 11 10 11 12 11 10 10 10 9 11 10 11 11 11 11
-9 -9 -9 -9 -7 -6 -6 -6 -10 -11 -9 5 12 14 12 11 11 11 10 11 12 12 12 11 11 10 11 11 11 10 10 10
-8 -8 -8 -9 -9 -8 -6 -5 -4 -8 -8 -1 9 13 13 12 11 12 12 13 13 12 12 12 11 11 11 10 11 11 10 10
-6 -6 -6 -7 -7 -7 -7 -5 -4 -3 -7 -9 7 11 13 12 12 11 12 13 14 12 12 12 11 11 11 10 10 11 10 10
-6 -6 -6 -6 -6 -6 -6 -5 -4 -4 -6 -10 -3 10 11 13 12 12 12 13 12 12 13 12 12 11 10 11 11 11 11 9
-6 -6 -6 -6 -6 -5 -5 -5 -3 -4 -4 -9 -6 5 11 12 13 12 12 13 13 12 12 12 12 11 11 11 11 11 11 10
-6 -6 -6 -6 -5 -5 -4 -4 -4 -1 -2 -3 -1 6 6 12 13 12 11 12 13 12 12 12 12 11 11 11 11 11 11 10
-6 -5 -5 -4 -4 -4 -3 -3 -3 -2 -0 -0 -2 5 7 8 12 13 12 11 13 12 12 12 12 10 12 12 10 10 11 11
-5 -5 -4 -4 -3 -2 -2 -1 -1 1 -0 0 -0 -2 3 7 9 12 13 12 12 12 13 13 12 11 11 12 12 11 10 9
-5 -5 -4 -4 -4 -3 -2 -1 -0 1 1 -1 -0 -1 -3 -1 7 9 12 12 12 13 12 13 12 12 11 12 12 11 10 9
-5 -5 -4 -4 -3 -2 -2 -1 0 1 2 1 1 -1 -2 -1 -0 6 10 12 12 13 13 13 12 12 12 12 12 12 12 11
-5 -5 -5 -4 -4 -3 -2 -1 1 1 3 3 1 -1 -3 3 2 2 8 8 13 12 13 13 13 13 12 11 11 12 12 12

GFSFLT2_850_dewp_135.txt.gz
Dewpoint
-10 9 13 13 13 14 14 13 10 9 9 9 10 11 12 12 12 11 11 11 10 10 10 10 10 10 10 9 9 9 10 11
-13 1 6 12 14 15 15 14 12 10 9 9 9 9 11 12 12 12 11 11 10 10 10 10 11 11 10 8 9 8 9 10
-12 -11 -9 -4 1 10 14 14 13 12 11 10 9 9 9 11 12 12 12 12 10 10 9 10 10 11 10 8 7 7 8 9
-12 -12 -12 -12 -12 -7 7 12 14 13 12 11 10 9 9 10 11 13 12 12 11 9 9 10 10 10 10 8 6 6 7 8
-12 -13 -13 -12 -12 -13 -12 -3 11 14 14 13 11 10 10 10 11 13 13 12 11 10 10 10 10 10 10 7 7 7 7 8
-10 -11 -13 -14 -13 -12 -12 -12 -11 -3 9 13 13 12 11 10 10 11 13 12 12 10 9 9 10 10 10 7 7 7 7 8
-8 -8 -8 -9 -11 -12 -12 -11 -12 -10 -7 9 13 14 12 11 10 11 12 12 11 10 9 9 10 10 9 7 8 7 8 10
-9 -9 -9 -9 -9 -9 -10 -11 -11 -11 -10 -6 7 12 14 12 11 11 12 12 11 10 9 9 10 10 9 9 9 8 10 11
-8 -8 -8 -9 -9 -10 -10 -9 -9 -10 -11 -10 -8 2 12 14 13 11 11 12 12 11 10 10 10 10 9 10 11 11 11 11
-8 -8 -9 -9 -9 -9 -10 -10 -10 -8 -8 -10 -10 -6 -1 11 14 12 11 12 12 11 11 11 10 10 10 9 11 11 11 10
-7 -7 -7 -7 -7 -7 -8 -9 -10 -10 -7 -6 -9 -9 -9 3 12 13 11 10 11 12 12 12 11 10 10 9 10 10 11 10
-6 -6 -6 -5 -5 -5 -5 -6 -7 -8 -8 -4 -3 -7 -9 1 9 13 13 10 10 11 12 12 12 11 10 9 10 11 11 10
-5 -5 -5 -5 -5 -5 -5 -5 -5 -7 -8 -7 -1 -3 -4 -0 9 11 13 12 9 11 12 12 12 12 10 10 11 11 10 11
-5 -5 -5 -5 -5 -5 -5 -5 -5 -5 -6 -7 -3 -2 -0 2 9 9 13 12 11 10 11 12 12 12 11 11 11 12 11 11
-5 -5 -5 -6 -5 -5 -5 -5 -4 -3 -4 -5 -6 -3 -1 4 5 7 9 13 12 11 10 12 12 11 12 11 11 11 11 11
-5 -5 -5 -5 -5 -4 -4 -4 -3 -2 -2 -3 -4 -3 -2 3 6 8 8 10 13 11 11 11 11 10 11 11 10 10 10 10
-5 -5 -6 -5 -4 -5 -4 -4 -3 -2 -1 -1 -2 -3 -1 -0 4 7 10 8 12 12 11 11 11 11 10 12 12 11 9 9
-5 -5 -5 -5 -5 -5 -4 -3 -3 -2 -2 -0 0 -2 -3 -0 1 0 2 8 7 9 12 10 10 11 10 10 11 11 10 10
-5 -5 -5 -5 -5 -5 -4 -3 -3 -2 -1 -0 1 2 -0 -2 0 -0 -2 -2 7 8 11 11 10 10 11 10 10 11 10 10
-5 -5 -5 -6 -5 -5 -4 -4 -4 -2 -1 0 1 2 3 -1 -1 -0 -2 -3 -3 6 9 12 11 10 11 11 11 11 11 11

GFSFLT2_850_dewp_138.txt.gz
Dewpoint
5 11 11 13 13 15 14 15 14 12 11 11 11 12 12 12 11 11 10 10 11 10 10 9 9 10 10 10 9 9 9 10
-12 -9 -6 -1 4 11 14 14 14 13 12 11 10 10 11 12 12 12 11 11 11 10 10 9 9 10 10 10 9 9 8 9
-13 -13 -12 -12 -12 -10 0 11 13 14 13 12 11 10 10 11 12 12 12 11 11 11 10 9 9 10 11 11 9 8 8 9
-12 -13 -14 -14 -14 -14 -13 -12 -1 10 14 13 13 12 11 10 10 12 12 12 12 11 10 10 10 10 10 11 9 8 7 9
-10 -11 -11 -11 -12 -12 -13 -15 -14 -13 1 9 13 13 13 11 10 11 12 12 12 12 11 10 9 10 10 10 9 7 7 8
-9 -9 -9 -10 -9 -10 -10 -10 -12 -14 -13 -12 -5 6 13 13 12 10 11 12 12 12 11 10 9 10 10 10 8 6 7 8
-9 -9 -9 -9 -9 -9 -8 -8 -9 -10 -11 -12 -12 -8 7 13 13 12 10 11 12 12 12 10 9 10 10 10 8 6 7 7
-8 -8 -8 -8 -8 -8 -9 -9 -9 -9 -10 -10 -10 -10 -6 7 12 13 12 10 11 12 12 11 9 9 10 10 8 6 7 7
-7 -7 -7 -8 -8 -8 -8 -8 -9 -10 -10 -11 -10 -9 -9 -5 2 9 13 12 10 11 12 12 11 10 10 10 9 7 7 7
-7 -7 -7 -7 -7 -7 -7 -7 -8 -8 -9 -9 -11 -9 -7 -6 -3 3 7 13 12 11 12 12 12 11 10 10 9 9 9 10
-7 -7 -6 -6 -6 -6 -6 -6 -5 -5 -6 -6 -8 -10 -7 -4 -4 -1 3 10 13 11 11 12 12 11 11 10 10 11 11 10
-5 -5 -5 -5 -5 -4 -4 -5 -5 -5 -5 -5 -5 -7 -8 -3 -1 2 10 10 13 13 11 11 11 11 11 10 10 10 10 10
-4 -4 -4 -5 -5 -5 -5 -5 -5 -5 -5 -5 -5 -6 -8 -4 1 3 10 8 9 12 12 12 12 11 11 10 11 10 11 10
-4 -4 -4 -4 -5 -5 -5 -4 -5 -5 -4 -5 -5 -5 -6 -6 -2 2 9 10 8 12 13 13 12 12 12 11 12 11 11 11
-4 -4 -4 -4 -5 -5 -5 -5 -4 -4 -4 -3 -3 -4 -4 -5 -3 -1 7 9 10 6 12 12 13 12 11 12 11 11 11 11
-4 -4 -5 -5 -5 -5 -5 -5 -4 -5 -3 -3 -2 -2 -3 -3 -3 -2 4 8 9 9 9 11 12 12 12 12 11 10 11 12
-4 -5 -5 -5 -6 -6 -5 -5 -4 -4 -3 -2 -2 -1 -1 -1 -3 -2 1 4 9 4 9 9 12 11 10 11 11 10 10 9
-4 -5 -5 -6 -6 -5 -6 -6 -5 -4 -3 -2 -1 -1 -0 1 -1 -2 0 2 4 7 3 5 9 11 10 10 10 11 10 9
-4 -5 -5 -6 -6 -6 -5 -6 -6 -5 -4 -3 -1 -0 -0 0 2 2 -0 1 -0 3 6 6 8 9 11 9 10 10 10 10
-4 -4 -5 -5 -6 -6 -6 -6 -6 -5 -4 -3 -2 -1 1 1 2 3 1 -0 -2 -3 -1 5 6 7 11 10 9 9 10 10

GFSFLT2_850_dewp_141.txt.gz
Dewpoint
0 3 3 4 7 13 13 14 14 13 12 12 12 12 12 12 11 11 11 10 10 10 9 9 9 8 9 10 10 9 10 10
-13 -12 -12 -12 -12 -9 0 10 12 14 13 12 12 12 12 12 12 12 11 11 11 11 10 10 9 9 9 10 10 10 10 9
-14 -14 -14 -14 -15 -14 -13 -12 -5 5 12 13 12 12 11 11 11 11 12 11 11 11 11 10 10 9 10 10 10 9 9 9
-12 -12 -13 -13 -13 -12 -13 -13 -14 -14 -11 -1 10 13 12 12 11 11 11 11 11 11 11 11 11 10 9 11 11 9 9 8
-10 -10 -10 -11 -11 -11 -10 -10 -11 -11 -12 -13 -12 -8 8 12 12 11 11 11 11 12 12 12 11 10 10 10 11 10 8 7
-8 -9 -9 -9 -9 -10 -10 -9 -9 -9 -9 -9 -11 -12 -11 -6 7 12 12 11 12 12 12 12 11 10 10 10 10 10 8 7
-7 -7 -7 -8 -8 -8 -8 -8 -9 -8 -9 -8 -9 -9 -11 -10 -2 7 12 12 12 12 12 12 12 10 10 10 10 10 8 7
-7 -6 -6 -6 -7 -7 -7 -7 -7 -7 -7 -8 -8 -9 -10 -10 -10 3 5 9 12 12 12 11 11 11 10 10 10 10 9 7
-6 -6 -7 -7 -7 -7 -7 -8 -8 -8 -8 -8 -8 -8 -9 -10 -9 -8 -3 3 5 13 13 12 12 11 11 10 11 10 9 7
-6 -5 -6 -6 -6 -6 -6 -6 -6 -6 -6 -6 -6 -7 -7 -9 -10 -9 -6 4 9 10 13 13 12 11 11 10 10 10 10 7
-5 -5 -5 -5 -5 -5 -4 -4 -4 -4 -4 -4 -5 -5 -5 -6 -8 -10 -7 -3 7 10 10 13 13 12 11 11 10 10 10 8
-4 -4 -4 -4 -4 -4 -4 -4 -4 -4 -4 -4 -5 -5 -5 -5 -6 -9 -8 -1 6 12 12 12 12 12 12 11 11 10 10 9
-4 -4 -4 -4 -4 -4 -4 -4 -4 -4 -5 -5 -4 -5 -5 -5 -5 -6 -8 -2 7 10 12 10 12 13 13 13 12 11 11 10
-4 -4 -4 -4 -5 -5 -5 -5 -5 -5 -4 -4 -4 -4 -4 -4 -4 -5 -5 -1 2 9 10 11 11 10 12 12 12 12 11 11
-4 -4 -4 -4 -5 -5 -5 -4 -4 -4 -4 -4 -3 -2 -2 -2 -3 -3 -3 3 3 7 8 7 7 10 12 12 11 11 11 11
-4 -4 -4 -4 -5 -5 -5 -6 -5 -5 -5 -4 -2 -1 -1 -1 -1 -2 -2 2 3 6 7 9 6 5 8 12 11 10 11 12
-4 -4 -3 -4 -5 -5 -6 -6 -6 -5 -5 -4 -2 -1 -0 -1 -0 -0 0 -0 -1 4 9 10 10 8 9 11 12 11 10 10
-7 -5 -3 -4 -5 -6 -6 -6 -6 -6 -6 -5 -3 -2 -1 0 0 0 1 2 -2 4 8 10 9 8 8 10 11 12 11 10
-8 -6 -4 -3 -5 -6 -6 -7 -6 -7 -6 -5 -5 -3 -2 0 0 1 1 2 -0 3 6 9 8 7 8 10 10 11 10 11
-9 -8 -4 -3 -4 -5 -6 -7 -7 -7 -6 -5 -4 -3 -2 -1 1 2 2 3 3 2 1 5 8 5 8 6 8 11 10 11

GFSFLT2_850_dewp_147.txt.gz
Dewpoint
-14 -14 -13 -13 -13 -12 -11 -10 -3 5 10 13 13 12 12 12 12 12 11 11 10 9 10 9 9 9 10 10 10 10 11 13
-15 -15 -15 -15 -15 -15 -14 -14 -14 -13 -10 -0 11 13 12 12 12 12 12 11 11 10 10 10 10 9 10 10 10 10 10 11
-13 -13 -13 -13 -13 -13 -12 -12 -13 -14 -14 -13 -12 2 11 13 13 13 12 12 12 11 11 11 11 11 10 10 11 11 13 13
-11 -11 -11 -11 -11 -11 -11 -12 -11 -10 -10 -12 -11 -11 -12 -11 1 11 12 12 11 11 11 11 11 12 13 11 11 11 13 12
-9 -9 -9 -10 -9 -8 -8 -8 -9 -9 -10 -11 -10 -10 -10 -10 -9 -9 -6 11 12 13 11 11 11 11 13 13 12 10 12 13
-7 -8 -7 -7 -7 -6 -6 -6 -6 -6 -6 -7 -7 -7 -8 -9 -9 -8 -6 2 1 12 13 13 13 11 12 12 13 12 10 13
-6 -6 -6 -6 -6 -6 -7 -7 -6 -7 -7 -7 -6 -7 -7 -6 -6 -7 -7 -3 8 7 7 12 13 13 11 12 12 12 11 12
-6 -6 -6 -6 -7 -7 -7 -6 -6 -7 -5 -3 -6 -6 -6 -7 -7 -6 -4 -1 3 7 10 9 12 12 13 11 12 12 12 10
-4 -4 -5 -5 -5 -5 -5 -2 -3 -2 -2 -0 -0 -1 0 -2 -2 -4 -4 -2 -0 1 7 10 9 11 12 12 11 11 12 11
-1 -2 -2 -4 -4 -4 -2 -1 -1 -1 -0 0 1 1 2 2 2 2 2 1 2 3 4 9 10 11 10 12 12 11 11 11
-1 -1 -0 -3 -2 -1 -1 -1 -1 -1 -1 -1 -0 1 1 1 2 2 3 3 3 3 3 5 11 11 11 10 12 13 11 12
-1 -1 -1 -1 -1 -1 -2 -2 -2 -2 -2 -1 -1 -0 0 0 0 1 1 2 3 4 4 5 7 10 11 11 11 12 12 11
-2 -2 -1 -1 -2 -2 -2 -2 -2 -2 -2 -2 -2 -2 -2 -2 -2 -2 -1 -0 2 3 4 4 4 6 11 11 10 10 13 12
-2 -2 -2 -2 -2 -2 -2 -2 -2 -3 -3 -3 -2 -2 -3 -3 -2 -2 -1 -1 1 1 2 4 5 4 8 11 11 11 13 13
-3 -3 -2 -2 -1 -2 -2 -2 -3 -3 -4 -3 -3 -4 -3 -2 -2 -2 -1 -1 -0 0 1 2 4 6 6 9 10 10 11 12
-4 -3 -3 -2 -2 -2 -2 -3 -3 -4 -4 -4 -4 -4 -4 -3 -2 -2 -1 -1 -0 0 0 1 2 5 6 9 9 10 10 9
-4 -4 -4 -2 -2 -2 -3 -3 -4 -4 -5 -5 -5 -5 -5 -4 -4 -3 -2 -1 -0 0 1 0 2 3 6 7 8 10 11 10
-4 -5 -5 -3 -2 -3 -4 -4 -5 -5 -6 -6 -6 -6 -5 -4 -4 -2 -1 -1 -0 1 1 1 1 2 4 6 9 10 10 10
-6 -6 -6 -4 -3 -3 -4 -5 -5 -5 -6 -6 -6 -6 -6 -5 -4 -3 -1 0 0 1 1 1 1 2 3 5 8 9 9 10
-16 -7 -8 -6 -5 -4 -5 -4 -5 -5 -6 -7 -7 -7 -6 -6 -5 -4 -2 -1 1 2 2 2 2 2 4 3 6 9 9 9

GFSFLT2_850_dewp_150.txt.gz
Dewpoint
-15 -15 -15 -15 -15 -16 -16 -16 -15 -15 -14 -13 -4 10 13 12 12 12 12 11 11 11 10 9 9 9 10 10 10 9 9 9
-14 -14 -14 -14 -14 -13 -13 -13 -13 -14 -14 -15 -14 -13 2 12 12 11 11 12 12 11 11 10 10 10 10 10 11 10 9 9
-13 -12 -12 -12 -12 -12 -11 -11 -11 -12 -12 -12 -13 -14 -14 -13 -4 4 11 12 12 12 12 11 10 11 11 11 11 11 10 8
-9 -12 -12 -12 -11 -10 -10 -9 -8 -9 -8 -11 -11 -10 -10 -10 -11 -11 -10 -8 3 11 11 12 11 11 11 11 11 11 10 9
-8 -10 -10 -9 -9 -9 -8 -7 -7 -6 -6 -6 -7 -8 -9 -10 -10 -11 -10 -7 -5 -4 10 11 11 11 11 11 11 13 11 10
-7 -7 -8 -8 -7 -7 -7 -6 -6 -6 -6 -7 -6 -7 -7 -6 -6 -7 -8 -8 -7 5 5 5 12 12 12 11 11 12 12 12
-6 -6 -6 -6 -6 -6 -7 -7 -7 -7 -7 -5 -4 -6 -7 -7 -7 -7 -7 -6 -4 1 7 8 7 11 12 13 11 11 12 12
-5 -6 -6 -6 -7 -7 -7 -7 -6 -6 -5 -3 -1 -1 -2 -3 -3 -5 -6 -6 -4 1 1 4 9 9 10 12 12 11 11 12
-4 -4 -5 -6 -7 -7 -7 -6 -6 -6 -3 -2 -2 -1 -0 1 0 -0 -0 -2 -2 -3 -1 1 7 10 9 6 11 11 11 11
-1 -3 -4 -7 -7 -6 -6 -4 -5 -2 -3 -3 -1 -0 -0 0 0 1 2 2 2 0 1 1 1 7 11 9 5 11 11 10
-1 -2 -4 -7 -5 -6 -5 -4 -4 -3 -3 -2 -2 -2 -2 -1 -0 -0 0 1 2 2 2 3 3 4 9 12 11 5 11 11
-1 -1 -2 -4 -3 -5 -4 -3 -3 -2 -2 -2 -2 -2 -2 -2 -2 -2 -1 -1 -1 0 2 3 4 5 5 7 12 11 8 11
-2 -2 -2 -2 -4 -4 -4 -4 -2 -3 -3 -3 -3 -3 -3 -3 -3 -2 -3 -2 -1 -0 -0 1 3 5 5 5 9 12 12 9
-3 -3 -2 -2 -3 -2 -2 -3 -3 -3 -4 -4 -4 -4 -4 -4 -4 -3 -3 -2 -2 -1 -1 -0 1 3 5 6 6 7 10 10
-3 -3 -3 -2 -2 -4 -5 -4 -4 -4 -4 -4 -4 -4 -4 -4 -4 -3 -3 -2 -2 -1 -1 -0 0 1 3 4 7 7 8 9
-3 -4 -3 -2 -2 -5 -6 -4 -3 -4 -4 -5 -5 -5 -5 -5 -5 -4 -4 -3 -2 -2 -1 -0 0 1 1 2 5 6 9 8
-4 -5 -5 -3 -2 -4 -7 -4 -3 -4 -4 -5 -5 -5 -6 -6 -6 -4 -3 -3 -3 -2 -2 -1 0 1 1 2 2 5 7 9
-6 -6 -6 -5 -4 -4 -6 -5 -4 -4 -4 -5 -5 -5 -6 -6 -6 -5 -4 -3 -2 -2 -1 -1 0 0 1 1 2 4 7 9
-10 -7 -8 -9 -8 -6 -8 -6 -5 -4 -5 -5 -5 -5 -6 -7 -7 -5 -4 -3 -2 -1 -1 0 2 2 2 1 1 2 5 7
-20 -12 -16 -17 -16 -8 -9 -13 -6 -4 -5 -5 -5 -5 -7 -7 -7 -6 -5 -3 -2 -2 -1 0 2 2 2 1 2 2 3 5